Regional Weather Roundup
Issued by NWS Northern Indiana

Home | Current Version | Previous Version | Text Only | Print | Product List | Glossary On
Versions: 1 2 3 4 5 6 7 8 9 10 11 12 13 14 15 16 17 18 19 20 21 22 23 24 25 26 27 28 29 30 31 32 33 34 35 36 37 38 39 40 41 42 43 44 45 46 47 48 49 50
000
ASUS43 KIWX 040010
RWRIWX

KIWX WEATHER ROUNDUP
NATIONAL WEATHER SERVICE NORTHERN INDIANA
700 PM EST TUE MAR 03 2015

NOTE: "FAIR" INDICATES FEW OR NO CLOUDS BELOW 12,000 FEET WITH NO
SIGNIFICANT WEATHER AND/OR OBSTRUCTIONS TO VISIBILITY.

* THESE STATIONS ARE NOT UNDER NWS QUALITY CONTROL. THEY ALSO MAY NOT
  REPORT WEATHER SUCH AS PRECIPITATION OR FOG.

INZ001>027-040100-
NORTHERN INDIANA

CITY           SKY/WX    TMP DP  RH WIND       PRES   REMARKS
GARY*          CLOUDY    37  28  70 W12G23    29.75R
VALPARAISO     CLOUDY    34  30  85 W17       29.76R WCI  23
6HR MIN TEMP:  32; 6HR MAX TEMP:  36; 6HR PCP: TRACE;

MICHIGAN CITY* CLOUDY    34  28  80 W7        29.74R WCI  28
LAPORTE*       CLOUDY    37  33  85 W13G20    29.74R
6HR MIN TEMP:  34; 6HR MAX TEMP:  37;

KNOX*            N/A     34  30  86 W13       29.74R WCI  25
SOUTH BEND     CLOUDY    35  50 100 W15       29.71S WCI  25
6HR MIN TEMP:  33; 6HR MAX TEMP:  36; 6HR PCP: TRACE;

ELKHART*       CLOUDY    36  30  80 W14G21    29.69S
GOSHEN         CLOUDY    35  31  85 W17       29.69R WCI  25
6HR MIN TEMP:  32; 6HR MAX TEMP:  37; 6HR PCP: TRACE;

MONTICELLO*    CLOUDY    35  34  96 W14G20    29.78R WCI  25
6HR MIN TEMP:  32; 6HR MAX TEMP:  37;

LOGANSPORT*    CLOUDY    34  34 100 W15G23    29.79R WCI  24
ROCHESTER*     CLOUDY    37  36  93 W12G17    29.76R
WARSAW*        CLOUDY    34  32  93 W15       29.71S WCI  24
ANGOLA*        CLOUDY    36  27  69 W12       29.67R
FORT WAYNE     CLOUDY    36  33  89 W23G29    29.72R
6HR MIN TEMP:  31; 6HR MAX TEMP:  38; 6HR PCP:  0.02;

HUNTINGTON*    CLOUDY    36  31  85 W17G25    29.75R
6HR MIN TEMP:  32; 6HR MAX TEMP:  38;

PERU/GRISSOM   CLOUDY    35  33  92 W16       29.75R WCI  26
6HR MIN TEMP:  33; 6HR MAX TEMP:  38; 6HR PCP:  0.03;

MARION*        CLOUDY    35  35  99 W16       29.78R WCI  25
6HR MIN TEMP:  -5; 6HR MAX TEMP:  52;


$$
INZ028>050-040100-
CENTRAL INDIANA

CITY           SKY/WX    TMP DP  RH WIND       PRES   REMARKS
LAFAYETTE      CLOUDY    36  34  92 W13       29.79R
6HR MIN TEMP:  35; 6HR MAX TEMP:  39; 6HR PCP:  0.01;

KOKOMO*        CLOUDY    36  34  93 W18       29.78R
6HR MIN TEMP:  34; 6HR MAX TEMP:  37; 6HR PCP:  0.19;

MUNCIE*        LGT RAIN  38  36  92 W17G24    29.78R
6HR MIN TEMP:  34; 6HR MAX TEMP:  40; 6HR PCP:  0.04;

INDIANAPOLIS   LGT RAIN  39  36  89 W15       29.79R
6HR MIN TEMP:  35; 6HR MAX TEMP:  40; 6HR PCP:  0.09;


$$
MIZ043>046-050>051-056>058-064>065-071>073-077>080-040100-
SOUTHWEST LOWER MICHIGAN

CITY           SKY/WX    TMP DP  RH WIND       PRES   REMARKS
BATTLE CREEK   CLOUDY    35  29  78 W17       29.65R WCI  25
6HR MIN TEMP:  30; 6HR MAX TEMP:  36; 6HR PCP: TRACE;

BENTON HARBOR  CLOUDY    32  30  92 W15       29.71R WCI  22
6HR MIN TEMP:  31; 6HR MAX TEMP:  33;

COLDWATER*     CLOUDY    35  31  87 W20G25    29.66R WCI  23
6HR MIN TEMP:  29; 6HR MAX TEMP:  35;

HILLSDALE*     CLOUDY    35  33  93 W16G24    29.64R WCI  25
6HR MIN TEMP:  28; 6HR MAX TEMP:  36;

HOLLAND        CLOUDY    34  28  79 W15G25    29.66R WCI  24
6HR MIN TEMP:  30; 6HR MAX TEMP:  34; 6HR PCP: TRACE;

GRAND RAPIDS   CLOUDY    32  27  81 W18G25    29.63R WCI  20
6HR MIN TEMP:  28; 6HR MAX TEMP:  33; 6HR PCP:  0.02;

KALAMAZOO      CLOUDY    34  29  82 W13       29.67R WCI  25
6HR MIN TEMP:  29; 6HR MAX TEMP:  35;

STURGIS*       CLOUDY    34  32  93 W14G22    29.67R WCI  24
THREE RIVERS*  CLOUDY    35  31  86 W15       29.67R WCI  25
6HR MIN TEMP:  30; 6HR MAX TEMP:  36;


$$
OHZ001>008-015>018-024>025-040100-
NORTHWEST OHIO

CITY           SKY/WX    TMP DP  RH WIND       PRES   REMARKS
WAUSEON*       CLOUDY    37  36  93 W20G28    29.67R
DEFIANCE       CLOUDY    38  34  85 W10G24    29.70R
6HR MIN TEMP:  31; 6HR MAX TEMP:  39; 6HR PCP: TRACE;

FINDLAY        CLOUDY    39  36  89 W25G31    29.70R
6HR MIN TEMP:  32; 6HR MAX TEMP:  41; 6HR PCP:  0.03;

TOLEDO EXPRESS CLOUDY    36  34  92 W16       29.66R
6HR MIN TEMP:  29; 6HR MAX TEMP:  36; 6HR PCP:  0.03;

TOLEDO METCALF CLOUDY    37  34  89 W18       29.67R
6HR MIN TEMP:  31; 6HR MAX TEMP:  38; 6HR PCP: TRACE;

LIMA           CLOUDY    40  32  73 W24G36    29.73R HAZE
6HR MIN TEMP:  33; 6HR MAX TEMP:  41; 6HR PCP:  0.01;


$$
AND FOR LAKE MICHIGAN COASTAL AND OPEN LAKE BUOY OBSERVATIONS

STATION/POSITION TEMP    WIND        PRES    VSBY  WAVE
                 AIR SEA DIR/SP/G                  HT/PER
                 (F)     (DEG/KT/KT) (MB)    (MI)  (FT/S)
CALUMET HARBOR    35     250/  7/ 12 1006.0R
MICHIGAN CITY     34     250/ 17/ 20   N/A
SAINT JOSEPH      33     230/  9/ 12 1006.8R

$$
&&



USA.gov is the U.S. government's official web portal to all federal, state and local government web resources and services.